Weather History for KOMA - February, 2015

Change the Weather History Date:

Wednesday, February 18, 2015

  Actual Average Record
Temperature  
Mean Temperature 10 °F 29 °F  
Max Temperature 17 °F 39 °F 70 °F (1930)
Min Temperature 3 °F 19 °F -15 °F (1903)
Degree Days  
Heating Degree Days 55 36  
Month to date heating degree days 761 692  
Since 1 July heating degree days 4240 4457  
Cooling Degree Days 0 0  
Month to date cooling degree days 0 0  
Year to date cooling degree days 0 0  
Moisture  
Dew Point -4 °F    
Average Humidity 53    
Maximum Humidity 69    
Minimum Humidity 37    
Precipitation  
Precipitation T in 0.03 in 0.68 in (1908)
Month to date precipitation 0.40 0.50  
Year to date precipitation 1.09 1.22  
Snow  
Snow T in 0.30 in - ()
Month to date snowfall 6.2 4.2  
Since 1 July snowfall 13.4 19.3  
Snow Depth 0.00 in    
Sea Level Pressure  
Sea Level Pressure 30.36 in    
Wind  
Wind Speed 14 mph (NNW)    
Max Wind Speed 30 mph    
Max Gust Speed 37 mph    
Visibility 10 miles    
Events Snow    
T = Trace of Precipitation, MM = Missing Value Source: NWS Daily Summary

Daily Weather History Graph

Daily Weather History Graph

Search for Another Location

Airport or City:

Trip Planner

Search our weather history database for the weather conditions in past years. The results will help you decide how hot, cold, wet, or windy it might be!

Date:

Astronomy

Feb. 18, 2015 Rise Set
Actual Time 7:14 AM CST 6:01 PM CST
Civil Twilight 6:46 AM CST 6:29 PM CST
Nautical Twilight 6:14 AM CST 7:01 PM CST
Astronomical Twilight 5:42 AM CST 7:33 PM CST
Moon 6:44 AM CST (2/18) 6:03 PM CST (2/18)
Length of Visible Light 11h 42m
Length of Day
10h 46m
Waning Crescent, 0% of the Moon is Illuminated
Feb 18
Waning Crescent
Feb 18
New
Feb 25
First Quarter
Mar 5
Full
Mar 13
Last Quarter

Hourly Weather History & Observations

Time (CST) Temp. Windchill Dew Point Humidity Pressure Visibility Wind Dir Wind Speed Gust Speed Precip Events Conditions
12:52 AM 14.0 °F -0.8 °F 1.0 °F 56% 30.15 in 10.0 mi NW 13.8 mph - N/A   Clear
1:52 AM 14.0 °F -3.4 °F 1.0 °F 56% 30.15 in 10.0 mi NW 19.6 mph - N/A   Clear
2:52 AM 12.9 °F -5.3 °F 1.0 °F 59% 30.17 in 10.0 mi NNW 20.7 mph 29.9 mph N/A   Mostly Cloudy
3:52 AM 10.0 °F -9.5 °F -2.9 °F 56% 30.21 in 10.0 mi NNW 21.9 mph 32.2 mph 0.00 in   Partly Cloudy
4:52 AM 8.1 °F -11.2 °F -4.0 °F 58% 30.24 in 10.0 mi NNW 19.6 mph 27.6 mph N/A   Clear
5:52 AM 7.0 °F -9.8 °F -2.9 °F 64% 30.27 in 10.0 mi North 13.8 mph - N/A   Scattered Clouds
6:52 AM 5.0 °F -13.6 °F -5.1 °F 63% 30.31 in 10.0 mi NNW 16.1 mph - N/A   Partly Cloudy
7:52 AM 3.9 °F -14.3 °F -2.9 °F 73% 30.35 in 8.0 mi North 15.0 mph - 0.00 in Snow Light Snow
8:13 AM 3.9 °F -13.7 °F -2.0 °F 76% 30.30 in 3.0 mi North 13.8 mph - 0.00 in Snow Light Snow
8:52 AM 3.9 °F -16.6 °F -5.1 °F 66% 30.38 in 10.0 mi NNW 19.6 mph - 0.00 in   Mostly Cloudy
9:07 AM 5.0 °F -14.2 °F -5.1 °F 63% 30.33 in 10.0 mi NNW 17.3 mph - N/A   Scattered Clouds
9:52 AM 7.0 °F -11.6 °F -7.1 °F 53% 30.41 in 10.0 mi NNW 17.3 mph - N/A   Scattered Clouds
10:52 AM 9.0 °F -9.5 °F -7.1 °F 48% 30.41 in 10.0 mi NNW 18.4 mph 28.8 mph N/A   Scattered Clouds
11:52 AM 12.0 °F -4.5 °F -6.0 °F 44% 30.42 in 10.0 mi NNW 16.1 mph - N/A   Scattered Clouds
12:52 PM 12.9 °F -5.7 °F -6.0 °F 43% 30.41 in 10.0 mi NNW 21.9 mph 26.5 mph N/A   Scattered Clouds
1:52 PM 15.1 °F 0.5 °F -6.0 °F 39% 30.40 in 10.0 mi NW 13.8 mph 24.2 mph N/A   Scattered Clouds
2:52 PM 16.0 °F 1.7 °F -6.0 °F 38% 30.40 in 10.0 mi NW 13.8 mph 23.0 mph N/A   Scattered Clouds
3:52 PM 17.1 °F 1.5 °F -5.1 °F 37% 30.40 in 10.0 mi NNW 17.3 mph - N/A   Partly Cloudy
4:52 PM 16.0 °F 0.6 °F -5.1 °F 39% 30.40 in 10.0 mi NNW 16.1 mph 27.6 mph N/A   Clear
5:52 PM 14.0 °F -0.2 °F -4.0 °F 45% 30.41 in 10.0 mi NNW 12.7 mph - N/A   Clear
6:52 PM 12.0 °F 0.5 °F -4.0 °F 49% 30.43 in 10.0 mi North 8.1 mph - N/A   Clear
7:52 PM 9.0 °F -2.2 °F -0.9 °F 64% 30.44 in 10.0 mi North 6.9 mph - N/A   Clear
8:52 PM 8.1 °F 1.4 °F -2.0 °F 64% 30.45 in 10.0 mi NNW 3.5 mph - N/A   Clear
9:52 PM 8.1 °F -0.5 °F -0.9 °F 67% 30.45 in 10.0 mi North 4.6 mph - N/A   Clear
10:52 PM 7.0 °F 0.1 °F -2.0 °F 67% 30.46 in 10.0 mi North 3.5 mph - N/A   Clear
11:52 PM 8.1 °F - -2.0 °F 64% 30.46 in 10.0 mi Calm Calm - N/A   Clear